Regional Weather Roundup
Issued by NWS Goodland, KS

Home | Current Version | Previous Version | Graphics & Text | Print | Product List | Glossary On
Versions: 1 2 3 4 5 6 7 8 9 10 11 12 13 14 15 16 17 18 19 20 21 22 23 24 25 26 27 28 29 30 31 32 33 34 35 36 37 38 39 40 41 42 43 44 45 46 47 48 49 50
000
ASUS43 KGLD 211608
RWRGLD

GOODLAND FORECAST AREA HOURLY WEATHER ROUNDUP
NATIONAL WEATHER SERVICE GOODLAND KS
1000 AM MDT TUE OCT 21 2014

...OFFICIAL OBSERVATIONS...

CITY           SKY/WX    TMP DP  RH WIND       PRES   REMARKS
GOODLAND KS    CLOUDY    56  55  97 S20       30.07S FOG
HILL CITY KS   NOT AVBL
IMPERIAL NEB   CLOUDY    58  55  90 S9G22     30.04S FOG
MCCOOK NEB     MOSUNNY   65  51  60 S12G18    30.06F
AKRON CO       SUNNY     66  43  43 SW12      30.01F
BURLINGTON CO  SUNNY     63  53  70 S10       30.06F
LIMON CO       SUNNY     56  48  74 SE9       30.08F
$$

...UNOFFICIAL OBSERVATIONS...

CITY           SKY/WX    TMP DP  RH WIND       PRES   REMARKS
COLBY KS       CLOUDY    66  61  82 SE20G25   30.08S
GOVE KS          N/A     64  32  30 MISG        N/A
NORTON KS      MOSUNNY   64  50  59 S9        30.07F
SHARON SPRINGS   N/A     57  56  96 S10         N/A
TRIBUNE KS     MOSUNNY   59  59 100 SE9       30.09
TRENTON NEB      N/A     65  32  29 S12         N/A
KIT CARSON CO    N/A     51  48  91 CALM        N/A
YUMA CO          N/A     62  48  60 S20         N/A
$$


USA.gov is the U.S. government's official web portal to all federal, state and local government web resources and services.